This is the latest recevied weather packets stored in our database for station/object ON7SD-5. If no packets are shown the sender has not sent any weather packets the latest 10 day(s).
| Time | Temp. | Humidity | Pressure | Rain* | Wind** | Luminosity | Snow |
|---|---|---|---|---|---|---|---|
| 1777485739 | 20° C | 31% | 1020.5 hPa | 0 mm | - | 116 W/m² | - |
| 1777485439 | 20.56° C | 31% | 1020.5 hPa | 0 mm | - | 127 W/m² | - |
| 1777485139 | 20.56° C | 30% | 1020.4 hPa | 0 mm | - | 141 W/m² | - |
| 1777484839 | 20.56° C | 29% | 1020.3 hPa | 0 mm | - | 155 W/m² | - |
| 1777484239 | 20.56° C | 30% | 1020.3 hPa | 0 mm | - | 181 W/m² | - |
| 1777483939 | 20.56° C | 29% | 1020.3 hPa | 0 mm | - | 195 W/m² | - |
| 1777483639 | 21.11° C | 29% | 1020.3 hPa | 0 mm | - | 207 W/m² | - |
| 1777483339 | 21.11° C | 29% | 1020.2 hPa | 0 mm | - | 221 W/m² | - |
| 1777483039 | 21.11° C | 29% | 1020.2 hPa | 0 mm | - | 237 W/m² | - |
| 1777482739 | 21.11° C | 28% | 1020.3 hPa | 0 mm | - | 251 W/m² | - |
| 1777482439 | 21.67° C | 28% | 1020.3 hPa | 0 mm | - | 265 W/m² | - |
| 1777481839 | 21.67° C | 28% | 1020.4 hPa | 0 mm | - | 294 W/m² | - |
| 1777481539 | 21.67° C | 28% | 1020.3 hPa | 0 mm | - | 308 W/m² | - |
| 1777481239 | 21.67° C | 27% | 1020.4 hPa | 0 mm | - | 323 W/m² | - |
| 1777480939 | 21.67° C | 27% | 1020.5 hPa | 0 mm | - | 339 W/m² | - |
| 1777480639 | 21.67° C | 27% | 1020.4 hPa | 0 mm | - | 352 W/m² | - |
| 1777480039 | 21.67° C | 27% | 1020.5 hPa | 0 mm | - | 381 W/m² | - |
| 1777479739 | 21.67° C | 27% | 1020.5 hPa | 0 mm | - | 390 W/m² | - |
| 1777479439 | 21.67° C | 27% | 1020.5 hPa | 0 mm | - | 404 W/m² | - |
| 1777479139 | 22.22° C | 27% | 1020.5 hPa | 0 mm | - | 413 W/m² | - |
| 1777478539 | 22.22° C | 27% | 1020.5 hPa | 0 mm | - | 439 W/m² | - |
| 1777478239 | 22.22° C | 27% | 1020.4 hPa | 0 mm | - | 457 W/m² | - |
| 1777477939 | 21.67° C | 27% | 1020.5 hPa | 0 mm | - | 471 W/m² | - |
| 1777477039 | 22.22° C | 26% | 1020.6 hPa | 0 mm | - | 506 W/m² | - |
| 1777476739 | 21.67° C | 26% | 1020.5 hPa | 0 mm | - | 519 W/m² | - |
* Rain latest hour (hover to see other rain measurements)
** Current wind speed in m/s (hover to see current wind gust speed)